Home   Weather   Langenhagen   Past weeks

Flag for Germany Past Weather in Langenhagen, Lower Saxony, Germany — Yesterday and Last 2 Weeks

52 °F

Passing clouds.

Feels Like: 49 °F
Forecast: 47 / 53 °F
Wind: 7 mph from West

Location: Hannover

Current Time: Oct 29, 2016 at 1:37:32 AM

Latest Report: Oct 29, 2016 at 12:50 AM

Visibility: N/A

Pressure: 30.48 "Hg

Humidity: 88%

Dew Point: 48 °F

Location of LangenhagenLocation

Past Weather in Langenhagen — Graph


Langenhagen Temperature Yesterday

Maximum temperature yesterday: 55 °F (at 10:50 AM)
Minimum temperature yesterday: 50 °F (at 3:50 AM)
Average temperature yesterday: 54 °F

High & Low Weather Summary for the Past Weeks

High63 °F (Oct 16, 1:20 PM)100% (Oct 16, 12:20 AM)30.48 "Hg (Oct 16, 12:20 AM)
Low32 °F (Oct 23, 7:50 AM)50% (Oct 23, 2:20 PM)29.74 "Hg (Oct 15, 5:20 AM)
Average48 °F89%30.08 "Hg
* Reported Oct 14 12:20 AM — Oct 29 12:20 AM, Langenhagen, Weather by CustomWeather, © 2016

Note: Actual official high and low records may vary slightly from our data, if they occured in-between our weather recording intervals... More about our weather records


Langenhagen Weather History for the Previous 24 Hours

Scroll right to see more
Time TempWeatherWind HumidityBarometerVisibility
12:20 AM
Sat, Oct 29
52 °FPassing clouds.7 mph94%30.48 "HgN/A
11:50 PM
Fri, Oct 28
52 °FPartly cloudy.5 mph94%30.48 "Hg4 mi
11:20 PM52 °FPassing clouds.7 mph94%30.48 "HgN/A
10:50 PM52 °FPassing clouds.8 mph94%30.45 "HgN/A
10:20 PM54 °FPartly cloudy.7 mph94%30.45 "HgN/A
9:50 PM54 °FPartly cloudy.8 mph94%30.45 "HgN/A
9:20 PM54 °FPartly cloudy.12 mph94%30.45 "HgN/A
8:50 PM55 °FPartly cloudy.13 mph88%30.45 "HgN/A
8:20 PM55 °FPartly cloudy.12 mph94%30.42 "HgN/A
7:50 PM55 °FPartly cloudy.10 mph94%30.42 "HgN/A
7:20 PM55 °FPartly cloudy.8 mph94%30.42 "Hg6 mi
6:50 PM55 °FDrizzle. Fog.8 mph94%30.42 "Hg3 mi
6:20 PM55 °FDrizzle. Fog.10 mph94%30.39 "Hg2 mi
5:50 PM55 °FDrizzle. Fog.10 mph94%30.39 "Hg2 mi
5:20 PM55 °FDrizzle. Fog.12 mph94%30.39 "Hg2 mi
4:50 PM55 °FDrizzle. Fog.12 mph94%30.39 "Hg3 mi
4:20 PM55 °FDrizzle. Fog.9 mph94%30.39 "Hg3 mi
3:50 PM54 °FDrizzle. Fog.10 mph100%30.39 "Hg2 mi
3:20 PM54 °FDrizzle. Fog.9 mph100%30.39 "Hg1 mi
2:50 PM54 °FDrizzle. Fog.10 mph94%30.39 "Hg1 mi
2:20 PM54 °FDrizzle. Fog.10 mph94%30.39 "Hg2 mi
1:50 PM54 °FDrizzle. Fog.12 mph94%30.39 "Hg3 mi
1:20 PM54 °FDrizzle. Fog.12 mph94%30.39 "Hg2 mi
12:50 PM54 °FDrizzle. Fog.12 mph94%30.39 "Hg2 mi
12:20 PM54 °FDrizzle. Partly sunny.12 mph88%30.39 "HgN/A
11:50 AM55 °FPartly sunny.13 mph82%30.36 "HgN/A
11:20 AM55 °FPartly sunny.14 mph82%30.36 "HgN/A
10:50 AM55 °FPartly sunny.12 mph82%30.36 "HgN/A
10:20 AM54 °FPartly sunny.10 mph88%30.36 "HgN/A
9:50 AM54 °FPartly sunny.15 mph82%30.36 "HgN/A
9:20 AM54 °FPartly sunny.12 mph82%30.36 "HgN/A
8:50 AM54 °FPartly sunny.14 mph82%30.36 "HgN/A
8:20 AM54 °FPartly sunny.13 mph82%30.36 "HgN/A
7:50 AM54 °FPassing clouds.12 mph82%30.33 "HgN/A
7:20 AM54 °FPassing clouds.12 mph82%30.33 "HgN/A
6:50 AM54 °FPassing clouds.13 mph82%30.36 "HgN/A
6:20 AM54 °FPassing clouds.13 mph82%30.36 "HgN/A
5:50 AM54 °FPassing clouds.12 mph82%30.36 "HgN/A
5:20 AM54 °FPassing clouds.12 mph82%30.36 "HgN/A
4:50 AM52 °FPassing clouds.13 mph82%30.36 "HgN/A
4:20 AM52 °FPassing clouds.8 mph82%30.36 "HgN/A
3:50 AM50 °FPassing clouds.9 mph88%30.36 "Hg5 mi
3:20 AM52 °FPassing clouds.10 mph88%30.39 "Hg5 mi
2:50 AM52 °FPassing clouds.12 mph88%30.39 "Hg6 mi
2:20 AM54 °FPassing clouds.13 mph82%30.39 "Hg6 mi
1:50 AM54 °FPassing clouds.13 mph82%30.42 "HgN/A
1:20 AM54 °FPassing clouds.9 mph82%30.42 "HgN/A
Weather by CustomWeather, © 2016

See weather overviewHow to use our weather pages